[[{"header":{"parameterUnit":"m.s-1","parameterCategory":1,"la1":30.2991,"la2":30.254,"lo1":-89.0895,"lo2":-89.0444,"dy":0.0017,"dx":0.0017,"nx":28,"ny":28,"refTime":"2024-04-07T21:00:00:Z","depth":0,"parameterNumber":2,"parameterNumberName":"U-component_of_WINDS"},"data":[0,0,0,0,0,0,0,0,0,0,0,0,0,0,0,0,0,0,0,0,0,0,0,0,0,0,0,0,0,0,0,0,0,0,0,0,0,0,0,0,0,0,0,0,0,0,0,0,0,0,0,0,0,0,0,0,0,0,-3.2267,-3.2267,0,-3.233,-3.233,-3.2331,-3.2332,-3.2331,-3.233,-3.2329,-3.2395,-3.2398,-3.24,0,0,0,0,0,0,0,0,0,0,0,0,0,-3.2148,-3.215,-3.2267,-3.2267,-3.2268,-3.233,-3.233,-3.2331,-3.2332,-3.2331,-3.233,-3.2329,-3.2394,-3.2397,-3.24,0,0,0,0,0,0,0,0,0,0,0,0,0,-3.2204,-3.2151,-3.2266,-3.2276,-3.2277,-3.2329,-3.233,-3.2332,-3.2332,-3.2331,-3.2329,-3.2328,-3.2393,-3.2397,-3.2401,-3.2448,0,0,-3.2412,-3.2414,0,0,0,0,0,0,0,0,-3.2201,-3.2208,-3.2274,-3.2275,-3.2277,-3.2321,-3.2313,-3.2371,-3.2332,-3.2311,-3.2329,-3.2328,-3.2372,-3.2377,-3.2392,-3.2451,-3.2454,-3.2413,-3.2415,-3.2417,-3.2418,0,0,0,0,0,0,0,-3.2197,-3.2206,-3.2292,-3.2275,-3.2277,-3.2277,-3.2284,-3.2324,-3.2348,-3.2313,-3.2313,-3.232,-3.2372,-3.2388,-3.2393,-3.2455,-3.2413,-3.2416,-3.2418,-3.242,-3.2557,-3.2558,0,0,0,0,0,0,-3.2191,-3.2202,-3.229,-3.2293,-3.2235,-3.228,-3.2288,-3.2308,-3.2347,-3.2352,-3.2321,-3.232,-3.2382,-3.2389,-3.2396,-3.2453,-3.2416,-3.242,-3.2422,-3.2555,-3.2557,-3.2559,0,0,0,0,0,0,-3.2188,-3.2199,-3.2287,-3.2248,-3.2259,-3.2284,-3.2307,-3.231,-3.2326,-3.2354,-3.2358,-3.2333,-3.2382,-3.239,-3.2435,-3.2455,-3.2422,-3.2425,-3.2554,-3.2556,-3.2558,-3.2569,0,0,0,0,0,0,-3.2185,-3.2198,-3.2216,-3.2248,-3.2261,-3.2325,-3.2308,-3.2312,-3.2332,-3.2331,-3.2365,-3.237,-3.2381,-3.2429,-3.2439,-3.246,-3.2428,-3.2552,-3.2555,-3.2557,-3.2567,-3.2571,-3.2574,0,0,0,0,0,-3.2181,-3.2217,-3.2217,-3.2227,-3.2284,-3.2326,-3.2333,-3.2345,-3.2334,-3.2352,-3.237,-3.2369,-3.2452,-3.2434,-3.2445,-3.2467,-3.2551,-3.2554,-3.2557,-3.2565,-3.257,-3.2574,0,0,0,0,0,0,-3.2186,-3.2221,-3.2221,-3.2269,-3.2294,-3.2326,-3.2349,-3.2351,-3.238,-3.2378,-3.2392,-3.24,-3.2444,-3.2461,-3.244,-3.2515,-3.25,-3.2506,-3.2502,-3.2508,-3.2511,-3.2506,-3.2431,0,0,0,0,0,-3.2193,-3.2224,-3.2253,-3.2292,-3.2305,-3.2325,-3.2344,-3.235,-3.2378,-3.2388,-3.241,-3.2436,-3.2468,-3.2489,-3.252,-3.257,-3.2577,-3.2591,-3.2594,-3.2598,-3.2602,-3.2628,-3.2634,-3.2569,-3.2569,-3.2569,0,0,-3.2207,-3.223,-3.2249,-3.2294,-3.2314,-3.2345,-3.2334,-3.2368,-3.2391,-3.2394,-3.2437,-3.2453,-3.2484,-3.2531,-3.2553,-3.2546,-3.2622,-3.2602,-3.2604,-3.2606,-3.2632,-3.2638,-3.2644,-3.2571,-3.2571,-3.257,0,0,-3.2249,-3.227,-3.2304,-3.2325,-3.2356,-3.2369,-3.2377,-3.2409,-3.242,-3.2463,-3.2465,-3.2494,-3.2549,-3.2571,-3.2589,-3.2639,-3.2639,-3.265,-3.267,-3.2695,-3.27,-3.2705,-3.2722,-3.2728,-3.2654,-3.2654,-3.2654,0,-3.2263,-3.2309,-3.2322,-3.2355,-3.2375,-3.2378,-3.2413,-3.2433,-3.2473,-3.2487,-3.2479,-3.2548,-3.2569,-3.262,-3.2633,-3.2648,-3.2657,-3.2645,-3.2699,-3.2703,-3.2708,-3.2724,-3.2731,-3.2655,-3.2655,-3.2655,-3.2654,0,-3.2324,-3.2357,-3.2381,-3.2418,-3.2441,-3.2475,-3.2493,-3.2514,-3.252,-3.2534,-3.2578,-3.2604,-3.264,-3.2653,-3.2659,-3.2706,-3.27,-3.2696,-3.268,-3.2715,-3.273,-3.2737,-3.2656,-3.2656,-3.2655,-3.2655,0,0,-3.237,-3.2414,-3.2422,-3.2439,-3.2474,-3.2499,-3.2534,-3.2569,-3.2586,-3.2614,-3.2643,-3.269,-3.2686,-3.2707,-3.2715,-3.2738,-3.2775,-3.273,-3.2731,-3.2737,-3.2827,-3.2829,-3.2836,-3.2776,-3.2777,-3.2778,-3.2824,0,-3.2414,-3.2475,-3.2487,-3.2539,-3.2569,-3.2573,-3.2603,-3.2628,-3.2643,-3.2671,-3.2687,-3.272,-3.2712,-3.2724,-3.2747,-3.2766,-3.2793,-3.2763,-3.2803,-3.2804,-3.2793,-3.2845,-3.2847,-3.2889,-3.283,-3.2831,-3.2832,0,-3.2474,-3.2502,-3.2557,-3.2587,-3.26,-3.2627,-3.2659,-3.2686,-3.2714,-3.2724,-3.2747,-3.2753,-3.2789,-3.2774,-3.2824,-3.2803,-3.2821,-3.2832,-3.2834,-3.2837,-3.2819,-3.2848,-3.2903,-3.2909,-3.2842,-3.2841,-3.2841,0,-3.25,-3.2552,-3.2591,-3.2606,-3.2642,-3.2661,-3.2677,-3.2704,-3.2724,-3.2753,-3.2766,-3.2799,-3.2817,-3.2843,-3.2858,-3.2846,-3.2907,-3.2893,-3.2916,-3.2915,-3.2927,-3.2926,-3.2985,-3.2941,-3.2941,-3.2941,-3.2941,0,-3.2547,-3.258,-3.2603,-3.2627,-3.2665,-3.2679,-3.2716,-3.2732,-3.2756,-3.2784,-3.279,-3.2816,-3.2835,-3.2864,-3.2877,-3.2916,-3.2925,-3.2933,-3.2936,-3.2932,-3.293,-3.2942,-3.2939,-3.2942,-3.2942,-3.2942,-3.2941,0,-3.2582,-3.2599,-3.2642,-3.2672,-3.2681,-3.2707,-3.2734,-3.2758,-3.2773,-3.2808,-3.2817,-3.284,-3.2875,-3.2893,-3.2936,-3.2944,-3.2988,-3.299,-3.2978,-3.2979,-3.3,-3.2997,-3.3067,-3.3076,-3.3027,-3.3028,-3.3028,0,-3.261,-3.2636,-3.2669,-3.2687,-3.2704,-3.2734,-3.2754,-3.2769,-3.279,-3.2824,-3.2844,-3.2878,-3.2906,-3.2961,-3.2983,-3.3016,-3.3018,-3.304,-3.3023,-3.3018,-3.3017,-3.3014,-3.3017,-3.3042,-3.3043,-3.3043,-3.3044,0,-3.2658,-3.2665,-3.2693,-3.2724,-3.2748,-3.2774,-3.2799,-3.2814,-3.2834,-3.2857,-3.2891,-3.2913,-3.2957,-3.2991,-3.3026,-3.3043,-3.3047,-3.3049,-3.3056,-3.3051,-3.3043,-3.3046,-3.2985,-3.3047,-3.3047,-3.3046,-3.3046,-3.3046,-3.269,-3.2712,-3.2739,-3.277,-3.2791,-3.2814,-3.2837,-3.2855,-3.2884,-3.292,-3.2928,-3.2964,-3.2992,-3.3039,-3.3058,-3.3087,-3.3082,-3.3092,-3.3095,-3.3096,-3.3097,-3.3039,-3.3093,-3.3093,-3.3093,-3.3093,-3.3093,0,-3.2737,-3.2755,-3.2783,-3.2818,-3.2842,-3.2843,-3.2871,-3.2891,-3.2923,-3.2949,-3.2976,-3.3016,-3.3049,-3.3073,-3.3107,-3.3126,-3.3128,-3.3134,-3.3132,-3.3136,-3.3099,-3.3089,-3.3131,-3.3131,-3.3131,-3.3131,-3.3131,-3.3131,-3.2765,-3.2802,-3.2812,-3.286,-3.2878,-3.2912,-3.2928,-3.295,-3.297,-3.3014,-3.3041,-3.3056,-3.3081,-3.3117,-3.3148,-3.3154,-3.3166,-3.3171,-3.3178,-3.3143,-3.3139,-3.3135,-3.3125,-3.3174,-3.3174,-3.3212,-3.3212,-3.3212]},{"header":{"parameterUnit":"m.s-1","parameterCategory":1,"la1":30.2991,"la2":30.254,"lo1":-89.0895,"lo2":-89.0444,"dy":0.0017,"dx":0.0017,"nx":28,"ny":28,"refTime":"2024-04-07T21:00:00:Z","depth":0,"parameterNumber":3,"parameterNumberName":"V-component_of_WINDS"},"data":[0,0,0,0,0,0,0,0,0,0,0,0,0,0,0,0,0,0,0,0,0,0,0,0,0,0,0,0,0,0,0,0,0,0,0,0,0,0,0,0,0,0,0,0,0,0,0,0,0,0,0,0,0,0,0,0,0,0,3.4179,3.4181,0,3.4365,3.4367,3.4369,3.44,3.4399,3.4397,3.4396,3.4583,3.4589,3.4595,0,0,0,0,0,0,0,0,0,0,0,0,0,3.3846,3.3852,3.4178,3.4181,3.4183,3.4364,3.4367,3.437,3.4401,3.4399,3.4397,3.4395,3.4581,3.4588,3.4596,0,0,0,0,0,0,0,0,0,0,0,0,0,3.4007,3.3854,3.4178,3.4221,3.4226,3.4364,3.4367,3.437,3.4401,3.4399,3.4396,3.4394,3.4578,3.4588,3.4597,3.4704,0,0,3.4627,3.4631,0,0,0,0,0,0,0,0,3.3998,3.4019,3.4212,3.4218,3.4224,3.4357,3.4319,3.4482,3.4402,3.4335,3.4396,3.4393,3.4509,3.4525,3.4565,3.4713,3.4721,3.4628,3.4633,3.4638,3.464,0,0,0,0,0,0,0,3.3987,3.4011,3.4252,3.4215,3.4222,3.4229,3.425,3.435,3.4433,3.434,3.4343,3.4365,3.4512,3.4555,3.4569,3.4724,3.4627,3.4636,3.4642,3.4646,3.497,3.4972,0,0,0,0,0,0,3.3968,3.4002,3.4246,3.4258,3.4103,3.4237,3.426,3.4317,3.4432,3.4447,3.4367,3.4366,3.454,3.4558,3.4576,3.471,3.4637,3.4647,3.4652,3.4967,3.497,3.4973,0,0,0,0,0,0,3.3961,3.399,3.4239,3.4131,3.4163,3.4245,3.4309,3.4322,3.4365,3.4452,3.4466,3.4396,3.4539,3.4562,3.4672,3.4716,3.4651,3.466,3.4964,3.4968,3.4972,3.4977,0,0,0,0,0,0,3.3952,3.3987,3.403,3.4131,3.4169,3.4333,3.4312,3.4327,3.4382,3.4382,3.4483,3.4497,3.4539,3.4658,3.4682,3.4729,3.4667,3.496,3.4966,3.497,3.4973,3.4981,3.4987,0,0,0,0,0,3.394,3.4023,3.4032,3.4061,3.4223,3.4336,3.4357,3.4404,3.4385,3.4428,3.4484,3.4494,3.4707,3.4669,3.4696,3.4746,3.4957,3.4964,3.497,3.497,3.4979,3.4987,0,0,0,0,0,0,3.3922,3.4037,3.4048,3.4167,3.4241,3.4341,3.4396,3.4412,3.4493,3.4489,3.4543,3.4566,3.4673,3.4721,3.4676,3.4856,3.4831,3.4843,3.4822,3.4831,3.4838,3.4824,3.4675,0,0,0,0,0,3.3933,3.4015,3.411,3.4206,3.4243,3.4313,3.4364,3.4394,3.4473,3.4504,3.4568,3.4643,3.4728,3.4782,3.4864,3.498,3.5002,3.5028,3.5035,3.504,3.505,3.5116,3.5128,3.4994,3.4994,3.4994,0,0,3.3954,3.4027,3.4075,3.4204,3.4266,3.4349,3.4339,3.4428,3.449,3.4517,3.4626,3.4675,3.4763,3.4876,3.493,3.4919,3.5092,3.5048,3.5052,3.5059,3.5123,3.5136,3.5147,3.4998,3.4998,3.4997,0,0,3.4036,3.41,3.4187,3.4249,3.4342,3.4389,3.4409,3.4507,3.4541,3.4651,3.4673,3.4747,3.4891,3.4953,3.5003,3.5109,3.5121,3.5134,3.5171,3.5234,3.5244,3.5254,3.5292,3.5305,3.5143,3.5143,3.5143,0,3.4051,3.4179,3.4229,3.4318,3.4373,3.4403,3.4491,3.4548,3.4663,3.47,3.4687,3.4869,3.493,3.5059,3.5085,3.5124,3.5149,3.5123,3.5239,3.5249,3.5259,3.5296,3.531,3.5144,3.5144,3.5144,3.5144,0,3.4193,3.4281,3.434,3.4453,3.4515,3.4602,3.4664,3.4721,3.4746,3.4793,3.4904,3.4978,3.5076,3.5109,3.5133,3.5242,3.5232,3.5228,3.5204,3.5272,3.5308,3.5322,3.5146,3.5146,3.5145,3.5145,0,0,3.427,3.4409,3.443,3.4482,3.4587,3.4656,3.4744,3.4842,3.4889,3.4967,3.5043,3.5164,3.5162,3.5218,3.5249,3.5305,3.5385,3.5294,3.5297,3.5309,3.5509,3.5512,3.5527,3.5393,3.5396,3.5398,3.5502,0,3.4366,3.4527,3.4574,3.4709,3.4791,3.482,3.4897,3.4969,3.5016,3.5091,3.5142,3.5227,3.5217,3.5252,3.5307,3.5363,3.5425,3.5356,3.5463,3.5466,3.5441,3.5546,3.555,3.5644,3.5516,3.5518,3.552,0,3.4499,3.4581,3.4725,3.482,3.4856,3.4925,3.5018,3.509,3.5173,3.5202,3.5266,3.5293,3.5385,3.5355,3.5484,3.5435,3.5482,3.5515,3.552,3.5533,3.5498,3.5562,3.5675,3.5689,3.5543,3.5541,3.5539,0,3.4542,3.4688,3.4793,3.4836,3.495,3.4998,3.5047,3.5127,3.5183,3.5263,3.53,3.539,3.5439,3.5507,3.5557,3.5531,3.5681,3.5655,3.5708,3.5707,3.5739,3.5737,3.5862,3.5767,3.5767,3.5767,3.5767,0,3.4644,3.4731,3.4814,3.4879,3.4977,3.5029,3.5124,3.5175,3.5246,3.532,3.5349,3.5418,3.5479,3.5556,3.5595,3.5695,3.5717,3.5743,3.5753,3.5741,3.5738,3.5773,3.5768,3.5771,3.577,3.5769,3.5769,0,3.4709,3.4768,3.4885,3.4983,3.501,3.5078,3.5162,3.5225,3.5272,3.5366,3.5391,3.5464,3.5556,3.5612,3.5728,3.5754,3.5865,3.5872,3.5838,3.5843,3.5893,3.5888,3.6046,3.6069,3.5958,3.5959,3.596,0,3.4771,3.4839,3.4945,3.4997,3.5048,3.5131,3.5189,3.5243,3.5301,3.54,3.5451,3.5545,3.5623,3.5768,3.5832,3.592,3.593,3.5979,3.5943,3.593,3.5931,3.5927,3.5934,3.5985,3.5986,3.5987,3.5987,0,3.4875,3.4901,3.4983,3.5076,3.5143,3.5219,3.5293,3.5334,3.5401,3.5464,3.5559,3.562,3.5739,3.5832,3.5926,3.5975,3.5993,3.5998,3.6015,3.6005,3.5983,3.5996,3.5855,3.5994,3.5994,3.5993,3.5993,3.5993,3.4941,3.5003,3.5087,3.5178,3.524,3.5309,3.5374,3.543,3.551,3.5613,3.5639,3.5738,3.5819,3.5947,3.5999,3.6077,3.6069,3.6094,3.61,3.6106,3.6107,3.597,3.6094,3.6094,3.6094,3.6093,3.6093,0,3.5047,3.5103,3.5186,3.529,3.5361,3.5372,3.5455,3.5514,3.5602,3.5676,3.5752,3.5861,3.5951,3.6022,3.6114,3.6163,3.6173,3.6185,3.6183,3.6194,3.6108,3.6085,3.6176,3.6176,3.6175,3.6175,3.6175,3.6175,3.5111,3.5216,3.5252,3.5389,3.5444,3.5543,3.5589,3.5653,3.5713,3.5834,3.5909,3.5955,3.6027,3.6125,3.6208,3.6226,3.6259,3.627,3.629,3.6209,3.62,3.6191,3.6169,3.6277,3.6277,3.6369,3.637,3.6371]}]]